Weather History for Windom, MN

Change the Weather History Date:

Monday, April 1, 2013

  Actual Average Record
Temperature  
Mean Temperature 25 °F -  
Max Temperature 33 °F 48 °F 79 °F (1963)
Min Temperature 17 °F 26 °F 7 °F (1975)
Degree Days  
Heating Degree Days 40    
Moisture  
Dew Point 15 °F    
Average Humidity 68    
Maximum Humidity 86    
Minimum Humidity 48    
Precipitation  
Precipitation 0.00 in - - ()
Sea Level Pressure  
Sea Level Pressure 30.24 in    
Wind  
Wind Speed 15 mph (NW)    
Max Wind Speed 24 mph    
Max Gust Speed 29 mph    
Visibility 10 miles    
Events Snow    
Averages and records for this station are not official NWS values.
T = Trace of Precipitation, MM = Missing Value Source: NWS Daily Summary

Daily Weather History Graph

Daily Weather History Graph

Search for Another Location

Airport:

Trip Planner

Search our weather history database for the weather conditions in past years. The results will help you decide how hot, cold, wet, or windy it might be!

Date:

Astronomy

Apr. 01, 2013 Rise Set
Actual Time 7:01 AM CDT 7:47 PM CDT
Civil Twilight 6:32 AM CDT 8:16 PM CDT
Nautical Twilight 5:57 AM CDT 8:51 PM CDT
Astronomical Twilight 5:21 AM CDT 9:27 PM CDT
Moon 1:05 AM CDT (4/1) 10:40 AM CDT (4/1)
Length of Visible Light 13h 44m
Length of Day
12h 46m
Waning Gibbous, 67% of the Moon is Illuminated
Apr 1
Waning Gibbous
Apr 2
Last Quarter
Apr 10
New
Apr 18
First Quarter
Apr 25
Full

Hourly Weather History & Observations

Time (CDT) Temp. Windchill Dew Point Humidity Pressure Visibility Wind Dir Wind Speed Gust Speed Precip Events Conditions
12:13 AM 21.2 °F 6.8 °F 15.8 °F 80% 30.14 in 10.0 mi NW 17.3 mph - N/A   Scattered Clouds
12:32 AM 21.2 °F 7.8 °F 15.8 °F 80% 30.15 in 10.0 mi NW 15.0 mph 25.3 mph N/A   Scattered Clouds
12:52 AM 21.2 °F 6.4 °F 15.8 °F 80% 30.15 in 10.0 mi NNW 18.4 mph 23.0 mph N/A   Clear
1:12 AM 21.2 °F 6.0 °F 15.8 °F 80% 30.16 in 10.0 mi NNW 19.6 mph 25.3 mph N/A   Scattered Clouds
1:32 AM 21.2 °F 6.8 °F 15.8 °F 80% 30.16 in 10.0 mi NNW 17.3 mph 23.0 mph N/A   Scattered Clouds
1:53 AM 19.4 °F 3.6 °F 15.8 °F 86% 30.17 in 10.0 mi NW 19.6 mph 24.2 mph N/A   Clear
2:12 AM 21.2 °F 6.8 °F 15.8 °F 80% 30.17 in 10.0 mi NW 17.3 mph - N/A   Mostly Cloudy
2:32 AM 21.2 °F 6.0 °F 14.0 °F 74% 30.17 in 10.0 mi NNW 19.6 mph 27.6 mph N/A   Mostly Cloudy
2:53 AM 19.4 °F 4.1 °F 14.0 °F 80% 30.17 in 10.0 mi NNW 18.4 mph 24.2 mph N/A   Scattered Clouds
3:12 AM 19.4 °F 4.1 °F 14.0 °F 80% 30.17 in 10.0 mi NNW 18.4 mph 24.2 mph N/A   Scattered Clouds
3:33 AM 21.2 °F 6.4 °F 15.8 °F 80% 30.18 in 10.0 mi NW 18.4 mph - N/A Snow Light Snow
3:53 AM 19.4 °F 3.6 °F 12.2 °F 74% 30.18 in 10.0 mi NNW 19.6 mph 28.8 mph N/A   Mostly Cloudy
4:12 AM 19.4 °F 3.6 °F 14.0 °F 80% 30.18 in 10.0 mi NNW 19.6 mph 25.3 mph N/A   Mostly Cloudy
4:33 AM 19.4 °F 2.1 °F 12.2 °F 74% 30.19 in 10.0 mi NW 24.2 mph 28.8 mph N/A   Mostly Cloudy
4:53 AM 19.4 °F 4.5 °F 12.2 °F 74% 30.20 in 10.0 mi NW 17.3 mph - N/A   Clear
5:12 AM 17.6 °F 2.7 °F 12.2 °F 79% 30.20 in 10.0 mi NW 16.1 mph 20.7 mph N/A   Clear
5:33 AM 17.6 °F 2.7 °F 12.2 °F 79% 30.21 in 10.0 mi NW 16.1 mph 25.3 mph N/A   Clear
5:53 AM 17.6 °F 3.2 °F 12.2 °F 79% 30.21 in 10.0 mi NW 15.0 mph 20.7 mph N/A   Clear
6:12 AM 17.6 °F 3.7 °F 12.2 °F 79% 30.22 in 10.0 mi NNW 13.8 mph - N/A   Clear
6:32 AM 17.6 °F 3.7 °F 12.2 °F 79% 30.22 in 10.0 mi NW 13.8 mph 18.4 mph N/A   Clear
6:53 AM 17.6 °F 3.2 °F 12.2 °F 79% 30.23 in 10.0 mi NNW 15.0 mph 19.6 mph N/A   Clear
7:12 AM 17.6 °F 3.2 °F 12.2 °F 79% 30.24 in 10.0 mi NW 15.0 mph 18.4 mph N/A   Clear
7:32 AM 17.6 °F 4.3 °F 12.2 °F 79% 30.24 in 10.0 mi NW 12.7 mph 18.4 mph N/A   Clear
7:53 AM 19.4 °F 5.5 °F 12.2 °F 74% 30.25 in 10.0 mi NW 15.0 mph - N/A   Clear
8:12 AM 19.4 °F 4.1 °F 12.2 °F 74% 30.26 in 10.0 mi NW 18.4 mph - N/A   Clear
8:32 AM 19.4 °F 4.1 °F 12.2 °F 74% 30.26 in 10.0 mi NW 18.4 mph - N/A   Clear
8:53 AM 21.2 °F 6.4 °F 12.2 °F 68% 30.27 in 10.0 mi NW 18.4 mph - N/A   Clear
9:12 AM 21.2 °F 7.3 °F 12.2 °F 68% 30.27 in 10.0 mi NNW 16.1 mph - N/A   Clear
9:32 AM 21.2 °F 7.8 °F 12.2 °F 68% 30.27 in 10.0 mi NW 15.0 mph - N/A   Scattered Clouds
9:53 AM 23.0 °F 9.6 °F 12.2 °F 63% 30.27 in 10.0 mi NW 16.1 mph 23.0 mph N/A   Scattered Clouds
10:12 AM 24.8 °F 12.4 °F 12.2 °F 59% 30.27 in 10.0 mi NW 15.0 mph 19.6 mph N/A   Scattered Clouds
10:32 AM 24.8 °F 12.4 °F 12.2 °F 59% 30.28 in 10.0 mi NW 15.0 mph 20.7 mph N/A   Scattered Clouds
10:53 AM 26.6 °F 14.7 °F 12.2 °F 55% 30.28 in 10.0 mi NW 15.0 mph 21.9 mph N/A   Scattered Clouds
11:12 AM 26.6 °F 14.3 °F 14.0 °F 59% 30.28 in 10.0 mi NW 16.1 mph - N/A   Scattered Clouds
11:32 AM 26.6 °F 13.1 °F 12.2 °F 55% 30.28 in 10.0 mi NNW 19.6 mph - N/A   Scattered Clouds
11:53 AM 28.4 °F 18.0 °F 15.8 °F 59% 30.28 in 10.0 mi NW 12.7 mph 20.7 mph N/A   Clear
12:12 PM 28.4 °F 17.0 °F 14.0 °F 55% 30.28 in 10.0 mi NW 15.0 mph 20.7 mph N/A   Clear
12:32 PM 30.2 °F 20.2 °F 15.8 °F 55% 30.28 in 10.0 mi NNW 12.7 mph 20.7 mph N/A   Scattered Clouds
12:52 PM 30.2 °F 18.9 °F 15.8 °F 55% 30.28 in 10.0 mi NW 16.1 mph 20.7 mph N/A   Scattered Clouds
1:12 PM 30.2 °F 19.3 °F 15.8 °F 55% 30.28 in 10.0 mi NW 15.0 mph 20.7 mph N/A   Scattered Clouds
1:33 PM 32.0 °F 20.8 °F 15.8 °F 51% 30.28 in 10.0 mi NNW 17.3 mph 20.7 mph N/A   Scattered Clouds
1:52 PM 32.0 °F 20.8 °F 15.8 °F 51% 30.28 in 10.0 mi NNW 17.3 mph 21.9 mph N/A   Clear
2:12 PM 32.0 °F 21.2 °F 15.8 °F 51% 30.28 in 10.0 mi NW 16.1 mph 20.7 mph N/A   Clear
2:33 PM 32.0 °F 21.2 °F 15.8 °F 51% 30.28 in 10.0 mi NW 16.1 mph 19.6 mph N/A   Scattered Clouds
2:52 PM 33.8 °F 25.3 °F 15.8 °F 48% 30.27 in 10.0 mi NW 11.5 mph 19.6 mph N/A   Scattered Clouds
3:12 PM 32.0 °F 23.6 °F 15.8 °F 51% 30.27 in 10.0 mi NW 10.4 mph 17.3 mph N/A   Scattered Clouds
3:33 PM 33.8 °F 24.3 °F 15.8 °F 48% 30.27 in 10.0 mi NNW 13.8 mph 17.3 mph N/A   Scattered Clouds
3:52 PM 33.8 °F 25.3 °F 17.6 °F 52% 30.26 in 10.0 mi NNW 11.5 mph 17.3 mph N/A   Scattered Clouds
4:12 PM 33.8 °F 24.8 °F 15.8 °F 48% 30.26 in 10.0 mi NNW 12.7 mph 18.4 mph N/A   Scattered Clouds
4:33 PM 33.8 °F 25.8 °F 15.8 °F 48% 30.26 in 10.0 mi NW 10.4 mph - N/A   Scattered Clouds
4:52 PM 33.8 °F 25.3 °F 15.8 °F 48% 30.26 in 10.0 mi NNW 11.5 mph - N/A   Scattered Clouds
5:12 PM 33.8 °F 25.3 °F 15.8 °F 48% 30.26 in 10.0 mi NNW 11.5 mph - N/A   Scattered Clouds
5:33 PM 33.8 °F 24.3 °F 17.6 °F 52% 30.25 in 10.0 mi NNW 13.8 mph 18.4 mph N/A   Scattered Clouds
5:52 PM 33.8 °F 25.3 °F 15.8 °F 48% 30.25 in 10.0 mi NW 11.5 mph 17.3 mph N/A   Scattered Clouds
6:12 PM 32.0 °F 23.0 °F 15.8 °F 51% 30.25 in 10.0 mi NNW 11.5 mph - N/A   Scattered Clouds
6:32 PM 32.0 °F 23.0 °F 15.8 °F 51% 30.25 in 10.0 mi NNW 11.5 mph 18.4 mph N/A   Clear
6:52 PM 30.2 °F 19.8 °F 17.6 °F 60% 30.25 in 10.0 mi NNW 13.8 mph - N/A   Clear
7:13 PM 30.2 °F 21.9 °F 17.6 °F 60% 30.25 in 10.0 mi NNW 9.2 mph - N/A   Clear
7:32 PM 28.4 °F 19.1 °F 17.6 °F 64% 30.25 in 10.0 mi NNW 10.4 mph - N/A   Clear
7:52 PM 28.4 °F 20.4 °F 19.4 °F 69% 30.25 in 10.0 mi NNW 8.1 mph - N/A   Clear
8:13 PM 26.6 °F 19.1 °F 19.4 °F 74% 30.25 in 10.0 mi NNW 6.9 mph - N/A   Clear
8:32 PM 24.8 °F 19.1 °F 19.4 °F 80% 30.25 in 10.0 mi NNW 4.6 mph - N/A   Clear
8:52 PM 24.8 °F 16.9 °F 19.4 °F 80% 30.26 in 10.0 mi North 6.9 mph - N/A   Clear
9:13 PM 24.8 °F 19.1 °F 19.4 °F 80% 30.26 in 10.0 mi NNW 4.6 mph - N/A   Clear
9:32 PM 23.0 °F 15.8 °F 19.4 °F 86% 30.27 in 10.0 mi NNW 5.8 mph - N/A   Clear
9:52 PM 24.8 °F 19.1 °F 19.4 °F 80% 30.27 in 10.0 mi NW 4.6 mph - N/A   Clear
10:13 PM 23.0 °F 15.8 °F 19.4 °F 86% 30.28 in 10.0 mi NNW 5.8 mph - N/A   Clear
10:32 PM 23.0 °F 15.8 °F 19.4 °F 86% 30.28 in 10.0 mi NW 5.8 mph - N/A   Clear
10:52 PM 23.0 °F 15.8 °F 19.4 °F 86% 30.28 in 10.0 mi NW 5.8 mph - N/A   Clear
11:13 PM 23.0 °F 18.4 °F 19.4 °F 86% 30.28 in 10.0 mi WNW 3.5 mph - N/A   Clear
11:32 PM 23.0 °F 17.0 °F 19.4 °F 86% 30.27 in 10.0 mi NW 4.6 mph - N/A   Clear
11:52 PM 21.2 °F 13.6 °F 17.6 °F 86% 30.27 in 10.0 mi NNW 5.8 mph - N/A   Clear